Location: ????????
(60.5616°N, 46.8254°E)
Time: 23:07:56
(UTC+00:00)

Cosmos 1072 Rocket - Pass Details

Date: 18 February 2020
Orbit: 948 x 1009 km, 82.9° (Epoch: 09 April)

Event Time Altitude Azimuth Distance (km) Brightness Sun altitude
Rises 16:55:24 0° 182° (S) 3,729 7.4 -23.3°
Reaches altitude 10° 16:57:56 10° 180° (S) 2,778 6.7 -23.6°
Maximum altitude 17:04:17 72° 98° (E) 1,052 4.4 -24.3°
Drops below altitude 10° 17:10:36 10° 16° (NNE) 2,760 6.9 -25.1°
Sets 17:13:07 0° 14° (NNE) 3,703 7.6 -25.3°
